Regional Weather Roundup
Issued by NWS Sterling, VA

Home | Current Version | Previous Version | Text Only | Print | Product List | Glossary Off
Versions: 1 2 3 4 5 6 7 8 9 10 11 12 13 14 15 16 17 18 19 20 21 22 23 24 25 26 27 28 29 30 31 32 33 34 35 36 37 38 39 40 41 42 43 44 45 46 47 48 49 50

000
ASUS41 KLWX 200810
RWRLWX

REGIONAL WEATHER ROUNDUP
NATIONAL WEATHER SERVICE BALTIMORE MD/WASHINGTON DC
300 AM EST SAT DEC 20 2014

Note: "FAIR" indicates few or no clouds below 12,000 feet
with no significant weather and/or obstructions to visibility.
 TC=TEMPERATURE CELSIUS

 * =Non NWS site. Station does not report precipitation (e.g. rain,
    snow, etc.), thunder, or fog.

DCZ001-MDZ009-015-VAZ040>042-051-053>054-200900-
WASHINGTON METRO

CITY           SKY/WX    TMP DP  RH WIND       PRES   REMARKS
WASHINGTON NAT CLEAR     33  20  58 NW8       30.27R WCI  26
DULLES         PTCLDY    25  19  78 CALM      30.26R
ANDREWS AFB    CLEAR     29  20  68 NW6       30.25R
FT BELVOIR     CLEAR     22  20  91 N1        30.28R
QUANTICO       CLEAR     26  22  84 NW7       30.30R
COLLEGE PARK*  CLEAR     27  23  86 CALM      30.27R
LEESBURG*      CLEAR     28  23  80 NW5       30.27R
MANASSAS*      CLEAR     21  19  93 CALM      30.27S
GAITHERSBURG*  CLEAR     25  16  68 CALM      30.28R

$$

MDZ006>007-011-014-200900-
BALTIMORE METRO

CITY           SKY/WX    TMP DP  RH WIND       PRES   REMARKS
BWI AIRPORT    CLEAR     28  19  69 NW5       30.25R
MD SCIENCE CTR   N/A     32  20  61 MISG      30.25R
MARTIN STATE   CLEAR     30  25  80 NW5       30.27R
ANNAPOLIS      CLEAR     31  21  66 W5        30.26R
FORT MEADE*    CLEAR     25  21  86 CALM      30.28R

$$

MDZ012-015-019>023-200900-
MARYLAND EASTERN SHORE

CITY           SKY/WX    TMP DP  RH WIND       PRES   REMARKS
OCEAN CITY     CLEAR     25  22  88 W3        30.24R
SALISBURY      CLEAR     27  22  81 CALM      30.25R
BAY BRIDGE AP*   N/A     32  23  69 NW8       30.26R WCI  25
CAMBRIDGE*     CLEAR     34  25  69 NW7       30.24S
EASTON*        CLEAR     31  27  82 CALM      30.29R

$$

MDZ017>025-200900-
SOUTHERN MARYLAND

CITY           SKY/WX    TMP DP  RH WIND       PRES   REMARKS
PATUXENT RIVER CLEAR     31  22  69 N9        30.26R WCI  23
ST INIGOES     CLEAR     26  20  77 CALM      30.26R
LEONARDTOWN*   CLEAR     27  21  80 CALM      30.27S

$$

MDZ003>005-200900-
NORTH CENTRAL MARYLAND

CITY           SKY/WX    TMP DP  RH WIND       PRES   REMARKS
FREDERICK*     CLEAR     27  21  80 SE3       30.28S
HAGERSTOWN APT CLEAR     25  17  72 CALM      30.25R
WESTMINSTER*   PTCLDY    27  19  74 NW3       30.22R

$$

MDZ501>502-200900-
WESTERN MARYLAND

CITY           SKY/WX    TMP DP  RH WIND       PRES   REMARKS
OAKLAND*       CLOUDY    21 N/A N/A N3        30.12S
CUMBERLAND*    CLEAR     30  21  69 CALM      30.29S

$$

VAZ025>031-200900-
SHENANDOAH VALLEY

CITY           SKY/WX    TMP DP  RH WIND       PRES   REMARKS
WINCHESTER*    CLEAR     27  18  69 CALM      30.25S
FRONT ROYAL*   FAIR      23  19  86 S3        30.24S
LURAY*         FAIR      23  23 100 CALM      30.24S
NEW MARKET*    FAIR      19  17  93 CALM      30.24S
STAUNTON*      CLEAR     22  18  87 CALM      30.25S
WAYNESBORO*    FAIR      23  19  86 CALM      30.22S

$$

WVZ021-048>050-054>055-200900-
EASTERN WEST VIRGINIA PANHANDLE

CITY           SKY/WX    TMP DP  RH WIND       PRES   REMARKS
MARTINSBURG    CLEAR     22  16  78 CALM      30.26R
PETERSBURG*    PTCLDY    22  20  93 CALM      30.26S

$$

VAZ036>039-050-200900-
CENTRAL FOOTHILLS

CITY           SKY/WX    TMP DP  RH WIND       PRES   REMARKS
CHARLOTTESVILL PTCLDY    28  22  78 SW3       30.25R
CULPEPER*      CLEAR     21  19  93 CALM      30.26R
ORANGE*        CLEAR     23  21  93 CALM      30.27S
GORDONSVILLE*  FAIR      23  21  91 CALM      30.26R
WARRENTON*     FAIR      21  21 100 CALM      30.26R

$$

VAZ055>057-200900-
NORTH AND CENTRAL PIEDMONT

CITY           SKY/WX    TMP DP  RH WIND       PRES   REMARKS
FREDERICKSBRG* CLEAR     26  23  89 CALM      30.28R
STAFFORD*      CLEAR     22  22 100 CALM      30.32R

$$

NCZ024-NYZ072-PAZ021-071-VAZ022-071-200900-
OTHER REGIONAL OBSERVATIONS

CITY           SKY/WX    TMP DP  RH WIND       PRES   REMARKS
NEW YORK CITY  CLOUDY    31  19  61 VRB6      30.22R
PHILADELPHIA   CLOUDY    34  22  61 NW5       30.23R
PITTSBURGH     CLOUDY    28  21  75 N5        30.23F
ROANOKE        CLOUDY    32  21  64 NE3       30.23F
RICHMOND       PTCLDY    30  21  69 CALM      30.27R
RALEIGH        CLOUDY    37  29  72 NE7       30.25R

$$

ANZ530>537-200900-
MARINE OBSERVATIONS

STATION/POSITION TIME  TEMP    WIND        PRES
                       AIR SEA DIR/SP/G
                 (UTC) (F)     (DEG/KT/KT) (MB)
THOMAS PT LIGHT  0800   32 41  310/  9/ 11 1025.8R
BALT KEY BRIDGE  0800   33     270/ 11/ 12 1024.3R
COVE POINT       0800   34     350/ 12/ 15 1024.4R
LEWISETTA        0800   35 42  350/ 10/ 13 1024.6R
SOLOMONS ISLAND  0800      43                N/A

$$




USA.gov is the U.S. government's official web portal to all federal, state and local government web resources and services.